period_start,C,m1,H,J0,J1,J2,J3,J4,J5,JA,JB,JC,JD,JJ,JK,JN,#
2014-12-15 00:01:17,0.14,3.17,0.00,19.27,23.87,27.21,4.97,27.24,1034.20,2042.00,2391.06,2508.20,2721.66,350.29,358.41,17.84,0000 0000 0000 0000 000000
2014-12-15 00:06:18,0.12,3.18,0.00,19.26,23.88,27.23,4.94,27.23,1034.19,2042.00,2390.05,2507.43,2720.80,349.37,357.68,17.87,0000 0000 0000 0000 000000
2014-12-15 00:11:20,0.11,3.18,0.00,19.11,23.89,27.22,5.00,27.18,1034.18,2042.00,2389.14,2506.73,2719.96,350.64,358.98,17.90,0000 0000 0000 0000 000000
2014-12-15 00:16:21,0.11,3.19,0.00,19.19,23.89,27.23,4.96,27.16,1034.18,2042.00,2388.13,2505.95,2719.07,350.16,358.42,17.93,0000 0000 0000 0000 000000
2014-12-15 00:21:23,0.14,3.19,0.00,19.26,23.90,27.22,4.99,27.23,1034.19,2042.00,2387.04,2505.10,2718.20,350.11,358.26,17.96,0000 0000 0000 0000 000000
2014-12-15 00:26:24,0.15,3.19,0.00,19.22,23.90,27.21,4.90,27.27,1034.19,2042.00,2385.95,2504.28,2717.37,348.94,357.34,17.99,0000 0000 0000 0000 000000
2014-12-15 00:31:25,0.15,3.20,0.00,19.12,23.90,27.21,4.93,27.19,1034.19,2042.00,2384.83,2503.52,2716.55,349.84,357.96,18.02,0000 0000 0000 0000 000000
2014-12-15 00:36:26,0.10,3.20,0.00,19.23,23.90,27.26,4.92,27.23,1034.19,2042.00,2384.08,2502.74,2715.67,350.04,358.21,18.05,0000 0000 0000 0000 000000
2014-12-15 00:41:28,0.11,3.20,0.00,19.27,23.90,27.23,4.97,27.35,1034.18,2042.00,2382.94,2501.93,2714.83,349.75,358.00,18.08,0000 0000 0000 0000 000000
2014-12-15 00:46:29,0.13,3.21,0.00,19.21,23.90,27.21,4.89,27.23,1034.06,2042.00,2381.89,2501.09,2713.99,349.70,357.98,18.11,0000 0000 0000 0000 000000
2014-12-15 00:51:31,0.14,3.21,0.00,19.19,23.90,27.23,4.97,27.27,1033.90,2042.00,2380.89,2500.31,2713.11,349.82,357.97,18.14,0000 0000 0000 0000 000000
2014-12-15 00:56:32,0.12,3.22,0.00,19.29,23.91,27.23,4.95,27.18,1034.00,2042.00,2380.03,2499.56,2712.19,350.28,358.42,18.17,0000 0000 0000 0000 000000
2014-12-15 01:01:33,0.14,3.22,0.00,19.29,23.92,27.23,4.93,27.34,1033.90,2042.00,2378.90,2498.77,2711.31,349.19,357.26,18.20,0000 0000 0000 0000 000000
2014-12-15 01:06:34,0.10,3.22,0.00,19.19,23.92,27.25,4.97,27.19,1033.84,2042.00,2377.79,2498.03,2710.65,350.15,358.27,18.23,0000 0000 0000 0000 000000
2014-12-15 01:11:36,0.13,3.23,0.00,19.22,23.92,27.26,4.92,27.19,1033.85,2042.00,2376.81,2497.22,2709.80,350.04,358.11,18.25,0000 0000 0000 0000 000000
2014-12-15 01:16:37,0.11,3.23,0.00,19.25,23.92,27.24,4.98,27.21,1033.90,2042.00,2376.02,2496.49,2708.91,350.38,358.56,18.28,0000 0000 0000 0000 000000
2014-12-15 01:21:38,0.10,3.23,0.00,19.29,23.92,27.25,4.94,27.24,1033.81,2042.00,2375.07,2495.80,2708.04,349.94,357.85,18.31,0000 0000 0000 0000 000000
2014-12-15 01:26:39,0.13,3.24,0.00,19.18,23.92,27.24,4.95,27.26,1033.73,2042.00,2374.00,2495.03,2707.16,349.65,357.79,18.34,0000 0000 0000 0000 000000
2014-12-15 01:31:41,0.16,3.24,0.00,19.27,23.92,27.24,4.97,27.21,1033.74,2042.00,2372.87,2494.29,2706.32,350.08,358.13,18.37,0000 0000 0000 0000 000000
2014-12-15 01:36:43,0.12,3.25,0.00,19.31,23.92,27.25,4.96,27.27,1033.72,2041.99,2371.92,2493.57,2705.53,349.88,357.77,18.40,0000 0000 0000 0000 000000
2014-12-15 01:41:44,0.10,3.25,0.00,19.27,23.92,27.25,4.94,27.31,1033.72,2041.99,2370.93,2492.84,2704.68,349.83,357.75,18.43,0000 0000 0000 0000 000000
2014-12-15 01:46:45,0.14,3.25,0.00,19.17,23.93,27.27,4.95,27.26,1033.72,2041.99,2369.81,2492.00,2703.86,350.41,358.65,18.46,0000 0000 0000 0000 000000
2014-12-15 01:51:46,0.11,3.26,0.00,19.26,23.94,27.28,4.94,27.28,1033.72,2041.99,2368.99,2491.16,2702.98,350.36,358.40,18.49,0000 0000 0000 0000 000000
2014-12-15 01:56:47,0.15,3.26,0.00,19.33,23.94,27.25,4.99,27.21,1033.72,2041.99,2368.02,2490.40,2702.02,349.87,357.83,18.52,0000 0000 0000 0000 000000
2014-12-15 02:01:49,0.14,3.27,0.00,19.28,23.95,27.25,4.99,27.20,1033.77,2041.99,2366.80,2489.53,2701.11,350.43,358.66,18.55,0000 0000 0000 0000 000000
2014-12-15 02:06:50,0.14,3.27,0.00,19.18,23.95,27.30,4.93,27.21,1033.76,2041.99,2365.70,2488.72,2700.24,350.26,358.43,18.58,0000 0000 0000 0000 000000
2014-12-15 02:11:51,0.11,3.27,0.00,19.28,23.95,27.28,5.03,27.26,1033.76,2041.99,2364.73,2487.94,2699.41,350.72,358.63,18.61,0000 0000 0000 0000 000000
2014-12-15 02:16:53,0.15,3.28,0.00,19.35,23.95,27.28,4.97,27.23,1033.79,2041.99,2363.58,2487.04,2698.45,349.89,357.90,18.63,0000 0000 0000 0000 000000
2014-12-15 02:21:54,0.15,3.28,0.00,19.28,23.95,27.27,4.95,27.19,1033.83,2041.98,2362.45,2486.10,2697.53,349.81,358.01,18.66,0000 0000 0000 0000 000000
2014-12-15 02:26:55,0.23,3.29,0.00,19.23,23.95,27.29,4.96,27.18,1033.82,2041.98,2360.77,2484.81,2696.09,349.62,357.65,18.69,0000 0000 0000 0000 000000
2014-12-15 02:31:56,0.11,3.29,0.00,19.33,23.96,27.31,4.96,27.27,1033.73,2041.95,2359.65,2483.90,2694.98,350.39,358.32,18.72,0000 0000 0000 0000 000000
2014-12-15 02:36:58,0.14,3.30,0.00,19.36,23.97,27.28,4.97,27.38,1033.82,2041.96,2358.67,2483.02,2694.01,350.45,358.37,18.75,0000 0000 0000 0000 000000
2014-12-15 02:41:59,0.15,3.30,0.00,19.25,23.97,27.29,4.95,27.42,1033.99,2041.96,2357.38,2482.12,2693.02,349.99,358.16,18.78,0000 0000 0000 0000 000000
2014-12-15 02:47:00,0.23,3.31,0.00,19.26,23.97,27.29,4.89,27.27,1034.02,2041.96,2355.84,2480.94,2691.73,349.67,357.80,18.81,0000 0000 0000 0000 000000
2014-12-15 02:52:01,0.31,3.32,0.00,19.33,23.97,27.30,4.95,27.27,1034.07,2041.92,2353.26,2479.13,2689.84,349.76,357.79,18.84,0000 0000 0000 0000 000000
2014-12-15 02:57:03,0.28,3.32,0.00,19.35,23.97,27.28,4.92,27.12,1034.16,2041.86,2350.75,2477.38,2687.92,350.60,358.68,18.87,0000 0000 0000 0000 000000
2014-12-15 03:02:04,0.27,3.33,0.00,19.23,23.97,27.30,4.96,27.19,1034.17,2041.85,2348.53,2475.71,2686.44,349.97,358.09,18.90,0000 0000 0000 0000 000000
2014-12-15 03:07:05,0.22,3.34,0.00,19.31,23.97,27.29,5.00,27.23,1034.18,2041.91,2346.70,2474.46,2685.01,349.68,357.93,18.93,0000 0000 0000 0000 000000
2014-12-15 03:12:07,0.25,3.35,0.00,19.35,23.99,27.30,4.97,27.23,1034.14,2041.96,2344.83,2472.98,2683.53,350.24,358.18,18.96,0000 0000 0000 0000 000000
2014-12-15 03:17:08,0.26,3.36,0.00,19.33,23.99,27.32,4.89,27.20,1034.05,2041.96,2342.73,2471.52,2681.85,349.66,357.79,18.99,0000 0000 0000 0000 000000
2014-12-15 03:22:09,0.25,3.36,0.00,19.21,24.00,27.33,4.93,27.17,1034.12,2041.95,2340.66,2469.97,2680.31,349.50,357.95,19.02,0000 0000 0000 0000 000000
2014-12-15 03:27:11,0.25,3.37,0.00,19.32,24.00,27.34,4.92,27.25,1034.17,2041.88,2338.55,2468.46,2678.63,349.34,357.45,19.04,0000 0000 0000 0000 000000
2014-12-15 03:32:12,0.22,3.38,0.00,19.35,24.00,27.33,4.89,27.21,1034.15,2041.56,2336.45,2466.77,2676.83,349.79,357.89,19.07,0000 0000 0000 0000 000000
2014-12-15 03:37:14,0.26,3.38,0.00,19.36,24.00,27.32,4.97,27.36,1034.01,2041.55,2334.34,2465.29,2675.16,349.77,357.76,19.10,0000 0000 0000 0000 000000
2014-12-15 03:42:15,0.24,3.39,0.00,19.27,24.00,27.34,4.94,27.19,1033.93,2041.45,2332.31,2463.74,2673.44,349.90,358.22,19.13,0000 0000 0000 0000 000000
2014-12-15 03:47:16,0.25,3.40,0.00,19.37,24.00,27.37,4.97,27.12,1034.08,2041.30,2330.13,2462.13,2671.81,349.56,357.63,19.16,0000 0000 0000 0000 000000
2014-12-15 03:52:17,0.28,3.41,0.00,19.38,24.01,27.32,4.94,27.30,1034.00,2041.23,2327.74,2460.53,2670.09,349.81,357.73,19.19,0000 0000 0000 0000 000000
2014-12-15 03:57:19,0.29,3.42,0.00,19.36,24.02,27.33,4.96,27.31,1033.98,2041.21,2325.36,2458.85,2668.39,349.76,357.75,19.22,0000 0000 0000 0000 000000
2014-12-15 04:02:20,0.25,3.42,0.00,19.23,24.02,27.34,4.89,27.38,1033.98,2041.14,2323.13,2457.25,2666.66,349.04,357.14,19.25,0000 0000 0000 0000 000000
2014-12-15 04:07:22,0.29,3.43,0.00,19.33,24.02,27.34,4.94,27.31,1034.00,2041.27,2321.05,2455.74,2665.10,349.67,357.73,19.28,0000 0000 0000 0000 000000
2014-12-15 04:12:23,0.22,3.44,0.00,19.37,24.02,27.32,4.98,27.28,1034.11,2041.26,2319.09,2454.30,2663.60,350.35,358.34,19.31,0000 0000 0000 0000 000000
2014-12-15 04:17:24,0.30,3.45,0.00,19.35,24.02,27.33,4.99,27.25,1034.18,2041.31,2316.95,2452.78,2661.95,350.22,358.35,19.34,0000 0000 0000 0000 000000
2014-12-15 04:22:26,0.32,3.46,0.00,19.19,24.02,27.36,4.98,27.20,1034.19,2041.18,2314.17,2450.96,2659.94,349.92,358.21,19.37,0000 0000 0000 0000 000000
2014-12-15 04:27:27,0.35,3.47,0.00,19.32,24.02,27.36,4.97,27.15,1034.19,2041.09,2311.19,2448.98,2657.84,350.44,358.59,19.40,0000 0000 0000 0000 000000
2014-12-15 04:32:28,0.33,3.48,0.00,19.40,24.02,27.38,4.92,27.23,1034.19,2041.05,2308.31,2447.05,2655.83,349.90,357.90,19.43,0000 0000 0000 0000 000000
2014-12-15 04:37:29,0.31,3.49,0.00,19.42,24.03,27.36,4.96,27.35,1034.19,2041.06,2305.69,2445.26,2653.90,350.22,358.33,19.45,0000 0000 0000 0000 000000
2014-12-15 04:42:30,0.24,3.49,0.00,19.23,24.03,27.35,4.93,27.34,1034.19,2041.03,2303.66,2443.69,2652.12,349.78,357.94,19.48,0000 0000 0000 0000 000000
2014-12-15 04:47:32,0.21,3.50,0.00,19.37,24.04,27.35,4.86,27.18,1034.19,2041.03,2302.27,2442.49,2650.70,349.39,357.44,19.51,0000 0000 0000 0000 000000
2014-12-15 04:52:33,0.20,3.51,0.00,19.38,24.05,27.38,4.92,27.27,1034.19,2041.02,2300.61,2441.30,2649.41,349.96,358.11,19.54,0000 0000 0000 0000 000000
2014-12-15 04:57:34,0.17,3.51,0.00,19.41,24.05,27.35,5.05,27.30,1034.19,2041.00,2299.11,2440.20,2648.29,350.81,358.78,19.57,0000 0000 0000 0000 000000
2014-12-15 05:02:35,0.19,3.52,0.00,19.27,24.05,27.36,4.92,27.21,1034.16,2041.01,2297.61,2439.10,2647.10,350.18,358.23,19.60,0000 0000 0000 0000 000000
2014-12-15 05:07:37,0.23,3.52,0.00,19.35,24.05,27.37,5.00,27.29,1034.08,2041.00,2296.03,2437.86,2645.74,350.10,358.12,19.63,0000 0000 0000 0000 000000
2014-12-15 05:12:38,0.22,3.53,0.00,19.40,24.05,27.38,4.92,27.23,1033.99,2041.00,2294.17,2436.62,2644.45,350.12,358.13,19.66,0000 0000 0000 0000 000000
2014-12-15 05:17:39,0.20,3.54,0.00,19.43,24.06,27.38,4.91,27.20,1033.75,2041.00,2292.39,2435.37,2643.10,349.76,357.75,19.69,0000 0000 0000 0000 000000
2014-12-15 05:22:41,0.21,3.54,0.00,19.30,24.07,27.36,4.91,27.23,1033.73,2041.00,2290.71,2434.26,2641.87,349.75,357.64,19.72,0000 0000 0000 0000 000000
2014-12-15 05:27:42,0.20,3.55,0.00,19.36,24.07,27.40,4.94,27.25,1033.72,2041.00,2289.08,2432.99,2640.58,350.55,358.50,19.75,0000 0000 0000 0000 000000
2014-12-15 05:32:43,0.20,3.55,0.00,19.44,24.07,27.38,4.89,27.35,1033.72,2041.00,2287.50,2431.87,2639.42,349.50,357.40,19.78,0000 0000 0000 0000 000000
2014-12-15 05:37:44,0.21,3.56,0.00,19.47,24.07,27.38,4.97,27.39,1033.71,2041.00,2285.91,2430.75,2638.01,349.69,357.51,19.81,0000 0000 0000 0000 000000
2014-12-15 05:42:46,0.24,3.57,0.00,19.40,24.07,27.36,5.04,27.40,1033.71,2041.00,2284.21,2429.43,2636.57,350.59,358.21,19.84,0000 0000 0000 0000 000000
2014-12-15 05:47:47,0.31,3.58,0.00,19.44,24.08,27.39,4.93,27.17,1033.71,2041.00,2281.93,2427.82,2634.84,349.80,357.64,19.86,0000 0000 0000 0000 000000
2014-12-15 05:52:48,0.25,3.58,0.00,19.50,24.09,27.41,4.96,27.22,1033.71,2041.00,2279.72,2426.35,2633.23,350.22,357.98,19.89,0000 0000 0000 0000 000000
2014-12-15 05:57:50,0.24,3.59,0.00,19.48,24.09,27.39,4.93,27.29,1033.70,2041.00,2277.70,2424.90,2631.70,349.70,357.57,19.92,0000 0000 0000 0000 000000
2014-12-15 06:02:51,0.24,3.60,0.00,19.34,24.10,27.39,4.97,27.28,1033.70,2040.99,2275.83,2423.63,2630.41,350.02,357.95,19.95,0000 0000 0000 0000 000000
2014-12-15 06:07:52,0.20,3.60,0.00,19.41,24.10,27.38,4.96,27.22,1033.69,2040.99,2274.08,2422.46,2629.21,350.32,358.24,19.98,0000 0000 0000 0000 000000
2014-12-15 06:12:53,0.19,3.61,0.00,19.49,24.10,27.35,4.93,27.27,1033.69,2040.99,2272.48,2421.35,2627.93,350.15,357.75,20.01,0000 0000 0000 0000 000000
2014-12-15 06:17:54,0.19,3.62,0.00,19.41,24.10,27.35,4.91,27.26,1033.71,2040.99,2270.94,2420.19,2626.78,349.68,357.64,20.04,0000 0000 0000 0000 000000
2014-12-15 06:22:55,0.19,3.62,0.00,19.45,24.10,27.38,4.91,27.25,1033.71,2040.99,2269.56,2419.10,2625.61,349.33,357.30,20.07,0000 0000 0000 0000 000000
2014-12-15 06:27:57,0.19,3.63,0.00,19.53,24.10,27.38,4.94,27.32,1033.71,2040.99,2268.04,2418.04,2624.45,350.53,358.33,20.10,0000 0000 0000 0000 000000
2014-12-15 06:32:58,0.20,3.63,0.00,19.56,24.10,27.35,4.91,27.34,1033.71,2040.99,2266.57,2416.89,2623.29,349.43,356.97,20.13,0000 0000 0000 0000 000000
2014-12-15 06:37:59,0.21,3.64,0.00,19.45,24.12,27.36,4.94,27.38,1033.72,2040.99,2264.89,2415.77,2622.24,349.73,357.70,20.16,0000 0000 0000 0000 000000
2014-12-15 06:43:01,0.22,3.65,0.00,19.56,24.12,27.39,4.95,27.35,1033.71,2040.99,2263.37,2414.56,2620.82,350.44,357.91,20.19,0000 0000 0000 0000 000000
2014-12-15 06:48:02,0.22,3.65,0.00,19.63,24.12,27.37,4.93,27.36,1033.71,2040.98,2261.63,2413.33,2619.54,350.30,357.90,20.22,0000 0000 0000 0000 000000
2014-12-15 06:53:03,0.21,3.66,0.00,19.65,24.12,27.36,4.95,27.27,1033.71,2040.99,2259.92,2412.05,2618.23,350.06,357.64,20.25,0000 0000 0000 0000 000000
2014-12-15 06:58:04,0.22,3.67,0.00,19.51,24.14,27.36,4.97,27.42,1033.71,2040.98,2258.23,2410.82,2616.89,349.75,357.39,20.27,0000 0000 0000 0000 000000
2014-12-15 07:03:06,0.22,3.67,0.00,19.60,24.15,27.35,4.91,27.32,1033.71,2040.98,2256.56,2409.66,2615.68,349.57,357.12,20.30,0000 0000 0000 0000 000000
2014-12-15 07:08:07,0.20,3.68,0.00,19.68,24.15,27.38,4.93,27.23,1033.72,2040.99,2255.03,2408.57,2614.52,350.20,357.76,20.33,0000 0000 0000 0000 000000
2014-12-15 07:13:09,0.18,3.68,0.00,19.71,24.16,27.38,4.93,27.26,1033.71,2040.98,2253.62,2407.55,2613.48,350.37,357.97,20.36,0000 0000 0000 0000 000000
2014-12-15 07:18:10,0.18,3.69,0.00,19.57,24.17,27.41,4.87,27.29,1033.71,2040.97,2252.17,2406.51,2612.37,349.55,357.52,20.39,0000 0000 0000 0000 000000
2014-12-15 07:23:11,0.16,3.70,0.00,19.59,24.17,27.41,4.90,27.43,1033.71,2040.96,2250.97,2405.40,2611.18,349.89,357.50,20.42,0000 0000 0000 0000 000000
2014-12-15 07:28:13,0.19,3.70,0.00,19.64,24.17,27.43,4.96,27.32,1033.71,2040.95,2249.76,2404.40,2609.92,350.20,357.79,20.45,0000 0000 0000 0000 000000
2014-12-15 07:33:14,0.18,3.71,0.00,19.63,24.19,27.47,4.92,27.39,1033.70,2040.95,2248.37,2403.38,2608.80,349.45,356.84,20.48,0000 0000 0000 0000 000000
2014-12-15 07:38:15,0.19,3.71,0.00,19.54,24.20,27.52,5.03,27.48,1033.71,2040.84,2246.75,2402.24,2607.63,350.50,358.26,20.51,0000 0000 0000 0000 000000
2014-12-15 07:43:17,0.19,3.72,0.00,19.62,24.20,27.52,4.89,27.24,1033.67,2040.88,2245.18,2401.13,2606.54,350.11,357.84,20.54,0000 0000 0000 0000 000000
2014-12-15 07:48:19,0.17,3.72,0.00,19.65,24.20,27.49,4.99,27.30,1033.68,2040.84,2243.90,2400.04,2605.36,350.53,358.11,20.57,0000 0000 0000 0000 000000
2014-12-15 07:53:20,0.23,3.73,0.00,19.67,24.21,27.50,4.94,27.28,1033.70,2040.83,2242.35,2398.80,2603.94,350.13,357.53,20.60,0000 0000 0000 0000 000000
2014-12-15 07:58:21,0.20,3.73,0.00,19.51,24.22,27.51,4.93,27.23,1033.65,2040.67,2240.52,2397.59,2602.72,349.75,357.45,20.63,0000 0000 0000 0000 000000
2014-12-15 08:03:23,0.17,3.74,0.00,19.60,24.22,27.47,4.93,27.18,1033.65,2040.63,2239.03,2396.41,2601.44,350.14,357.81,20.66,0000 0000 0000 0000 000000
2014-12-15 08:08:25,0.14,3.75,0.00,19.65,24.22,27.49,4.98,27.23,1033.69,2040.41,2237.72,2395.34,2600.28,350.49,358.16,20.68,0000 0000 0000 0000 000000
2014-12-15 08:13:26,0.18,3.75,0.00,19.65,24.22,27.50,4.94,27.19,1033.69,2040.30,2236.33,2394.29,2599.13,350.10,357.73,20.71,0000 0000 0000 0000 000000
2014-12-15 08:18:27,0.19,3.76,0.00,19.55,24.22,27.54,4.95,27.21,1033.71,2040.39,2234.89,2393.22,2597.95,349.87,357.56,20.74,0000 0000 0000 0000 000000
2014-12-15 08:23:28,0.16,3.76,0.00,19.60,24.23,27.53,4.94,27.27,1033.71,2040.17,2233.34,2392.10,2596.84,349.86,357.39,20.77,0000 0000 0000 0000 000000
2014-12-15 08:28:29,0.23,3.77,0.00,19.68,24.24,27.56,4.96,27.13,1033.71,2040.24,2231.71,2391.01,2595.70,350.48,357.97,20.80,0000 0000 0000 0000 000000
2014-12-15 08:33:31,0.19,3.77,0.00,19.65,24.24,27.55,4.94,27.20,1033.71,2040.26,2230.19,2389.97,2594.59,350.18,357.89,20.83,0000 0000 0000 0000 000000
2014-12-15 08:38:32,0.18,3.78,0.00,19.51,24.24,27.54,4.89,27.29,1033.70,2040.21,2228.75,2388.96,2593.54,349.77,357.41,20.86,0000 0000 0000 0000 000000
2014-12-15 08:43:33,0.19,3.78,0.00,19.56,24.25,27.52,4.90,27.28,1033.70,2040.28,2227.70,2387.98,2592.65,349.95,357.65,20.89,0000 0000 0000 0000 000000
2014-12-15 08:48:35,0.33,3.79,0.00,19.66,24.25,27.55,4.92,27.27,1033.70,2040.27,2225.09,2386.40,2590.79,349.85,357.02,20.92,0000 0000 0000 0000 000000
2014-12-15 08:53:36,0.16,3.80,0.00,19.66,24.25,27.55,4.89,27.27,1033.70,2040.12,2223.46,2385.16,2589.48,349.74,357.58,20.95,0000 0000 0000 0000 000000
2014-12-15 08:58:38,0.35,3.81,0.00,19.56,24.25,27.57,4.98,27.32,1033.64,2040.06,2220.73,2383.39,2587.51,350.19,357.83,20.98,0000 0000 0000 0000 000000
2014-12-15 09:03:39,0.67,3.82,0.00,19.54,24.25,27.56,4.97,27.40,1033.65,2040.07,2216.74,2380.52,2584.41,349.95,357.65,21.01,0000 0000 0000 0000 000000
2014-12-15 09:08:40,0.32,3.84,0.00,19.61,24.25,27.55,5.02,27.42,1033.64,2040.04,2213.15,2378.03,2581.66,350.18,357.76,21.04,0000 0000 0000 0000 000000
2014-12-15 09:13:41,0.20,3.84,0.00,19.64,24.26,27.55,4.96,27.31,1033.69,2040.04,2211.51,2376.89,2580.53,350.65,358.03,21.07,0000 0000 0000 0000 000000
2014-12-15 09:18:42,0.22,3.85,0.00,19.53,24.27,27.57,4.96,27.31,1033.70,2040.04,2209.88,2375.78,2579.35,349.97,357.93,21.09,0000 0000 0000 0000 000000
2014-12-15 09:23:43,0.20,3.86,0.00,19.51,24.27,27.56,5.06,27.35,1033.71,2040.02,2208.32,2374.64,2578.16,350.38,358.15,21.12,0000 0000 0000 0000 000000
2014-12-15 09:28:45,0.21,3.86,0.00,19.60,24.27,27.56,4.93,27.27,1033.71,2040.01,2206.65,2373.56,2576.99,349.97,357.75,21.15,0000 0000 0000 0000 000000
2014-12-15 09:33:46,0.22,3.87,0.00,19.63,24.27,27.59,4.94,27.25,1033.71,2040.01,2205.02,2372.44,2575.72,349.89,357.48,21.18,0000 0000 0000 0000 000000
2014-12-15 09:38:47,0.23,3.88,0.00,19.61,24.27,27.57,4.92,27.32,1033.71,2040.01,2203.22,2371.14,2574.44,350.27,357.89,21.21,0000 0000 0000 0000 000000
2014-12-15 09:43:48,0.26,3.88,0.00,19.49,24.27,27.56,4.91,27.36,1033.70,2040.01,2201.29,2369.78,2572.96,349.76,357.63,21.24,0000 0000 0000 0000 000000
2014-12-15 09:48:49,0.24,3.89,0.00,19.60,24.27,27.55,4.95,27.20,1033.70,2040.00,2199.59,2368.55,2571.63,350.54,357.94,21.27,0000 0000 0000 0000 000000
2014-12-15 09:53:51,0.18,3.90,0.00,19.65,24.27,27.55,4.94,27.32,1033.64,2040.01,2198.08,2367.45,2570.45,349.92,357.68,21.30,0000 0000 0000 0000 000000
2014-12-15 09:58:52,0.18,3.90,0.00,19.62,24.27,27.56,4.95,27.27,1033.61,2040.01,2196.68,2366.61,2569.32,349.32,357.07,21.33,0000 0000 0000 0000 000000
2014-12-15 10:03:53,0.18,3.91,0.00,19.46,24.27,27.54,4.94,27.27,1033.56,2040.01,2195.24,2365.59,2568.23,350.03,357.74,21.36,0000 0000 0000 0000 000000
2014-12-15 10:08:55,0.16,3.91,0.00,19.56,24.27,27.53,4.98,27.28,1033.57,2040.00,2194.08,2364.67,2567.26,349.71,357.49,21.39,0000 0000 0000 0000 000000
2014-12-15 10:13:56,0.18,3.92,0.00,19.59,24.27,27.60,4.96,27.28,1033.51,2040.00,2192.75,2363.71,2566.11,349.99,357.64,21.42,0000 0000 0000 0000 000000
2014-12-15 10:18:57,0.18,3.92,0.00,19.61,24.27,27.56,4.94,27.10,1033.45,2040.00,2191.39,2362.69,2565.06,350.44,357.76,21.45,0000 0000 0000 0000 000000
2014-12-15 10:23:58,0.21,3.93,0.00,19.43,24.27,27.59,4.96,27.20,1033.34,2040.00,2189.84,2361.60,2563.90,350.76,358.41,21.47,0000 0000 0000 0000 000000
2014-12-15 10:29:00,0.21,3.93,0.00,19.56,24.27,27.60,4.88,27.20,1033.30,2040.00,2188.29,2360.48,2562.70,349.48,357.11,21.50,0000 0000 0000 0000 000000
2014-12-15 10:34:01,0.22,3.94,0.00,19.58,24.27,27.55,4.90,27.20,1033.31,2040.00,2186.63,2359.40,2561.54,350.12,357.66,21.53,0000 0000 0000 0000 000000
2014-12-15 10:39:02,0.22,3.95,0.00,19.62,24.26,27.57,4.97,27.36,1033.29,2040.00,2184.78,2358.15,2560.30,350.37,357.79,21.56,0000 0000 0000 0000 000000
2014-12-15 10:44:04,0.17,3.95,0.00,19.49,24.25,27.58,4.93,27.25,1033.28,2040.00,2183.45,2357.07,2559.22,349.81,357.33,21.59,0000 0000 0000 0000 000000
2014-12-15 10:49:05,0.17,3.96,0.00,19.55,24.25,27.55,4.91,27.26,1033.31,2040.00,2182.03,2356.16,2558.42,349.50,356.96,21.62,0000 0000 0000 0000 000000
2014-12-15 10:54:06,0.15,3.96,0.00,19.62,24.25,27.54,4.92,27.30,1033.28,2040.01,2181.11,2355.30,2557.46,349.85,357.36,21.65,0000 0000 0000 0000 000000
2014-12-15 10:59:07,0.17,3.97,0.00,19.59,24.26,27.57,4.96,27.27,1033.42,2040.01,2180.02,2354.31,2556.32,350.26,357.66,21.68,0000 0000 0000 0000 000000
2014-12-15 11:04:09,0.20,3.98,0.00,19.54,24.25,27.58,5.01,27.32,1033.41,2040.00,2178.61,2353.31,2555.22,350.75,358.43,21.71,0000 0000 0000 0000 000000
2014-12-15 11:09:10,0.17,3.98,0.00,19.55,24.25,27.56,4.97,27.22,1033.28,2040.01,2177.26,2352.32,2554.16,350.39,357.86,21.74,0000 0000 0000 0000 000000
2014-12-15 11:14:11,0.18,3.99,0.00,19.63,24.25,27.58,4.93,27.28,1033.33,2040.00,2175.93,2351.41,2553.16,350.10,357.62,21.77,0000 0000 0000 0000 000000
2014-12-15 11:19:12,0.19,3.99,0.00,19.62,24.25,27.59,4.90,27.26,1033.58,2040.00,2174.61,2350.38,2552.11,349.51,357.06,21.80,0000 0000 0000 0000 000000
2014-12-15 11:24:14,0.18,4.00,0.00,19.58,24.25,27.57,4.95,27.18,1033.45,2040.00,2173.18,2349.36,2551.02,350.32,358.03,21.83,0000 0000 0000 0000 000000
2014-12-15 11:29:15,0.21,4.00,0.00,19.52,24.25,27.55,4.90,27.28,1033.23,2040.00,2171.70,2348.37,2549.87,349.46,357.13,21.86,0000 0000 0000 0000 000000
2014-12-15 11:34:16,0.17,4.01,0.00,19.62,24.25,27.58,4.90,27.20,1033.22,2040.00,2170.38,2347.39,2548.89,349.62,357.22,21.88,0000 0000 0000 0000 000000
2014-12-15 11:39:18,0.20,4.01,0.00,19.62,24.25,27.56,4.97,27.30,1033.22,2040.00,2168.88,2346.40,2547.89,350.09,357.68,21.91,0000 0000 0000 0000 000000
2014-12-15 11:44:19,0.13,4.02,0.00,19.63,24.25,27.57,4.95,27.28,1033.22,2040.00,2168.01,2345.56,2546.91,350.34,357.88,21.94,0000 0000 0000 0000 000000
2014-12-15 11:49:21,0.20,4.02,0.00,19.50,24.25,27.53,4.96,27.24,1033.22,2040.00,2166.73,2344.60,2545.85,350.02,357.51,21.97,0000 0000 0000 0000 000000
2014-12-15 11:54:22,0.20,4.03,0.00,19.60,24.25,27.55,4.95,27.34,1033.21,2040.00,2165.19,2343.54,2544.72,349.83,357.27,22.00,0000 0000 0000 0000 000000
2014-12-15 11:59:23,0.20,4.04,0.00,19.67,24.25,27.56,4.88,27.23,1033.19,2040.00,2163.71,2342.52,2543.67,349.33,356.74,22.03,0000 0000 0000 0000 000000
2014-12-15 12:04:25,0.19,4.04,0.00,19.66,24.25,27.56,4.93,27.28,1033.07,2040.00,2162.28,2341.46,2542.57,349.71,356.88,22.06,0000 0000 0000 0000 000000
2014-12-15 12:09:26,0.15,4.05,0.00,19.51,24.25,27.58,4.94,27.18,1032.91,2040.00,2161.22,2340.59,2541.57,350.23,357.70,22.09,0000 0000 0000 0000 000000
2014-12-15 12:14:27,0.20,4.05,0.00,19.56,24.25,27.56,4.91,27.28,1032.80,2040.00,2159.95,2339.55,2540.40,349.79,357.10,22.12,0000 0000 0000 0000 000000
2014-12-15 12:19:29,0.20,4.06,0.00,19.61,24.25,27.55,4.94,27.21,1032.73,2040.00,2158.46,2338.47,2539.17,349.87,357.12,22.15,0000 0000 0000 0000 000000
2014-12-15 12:24:30,0.25,4.07,0.00,19.58,24.25,27.58,4.89,27.23,1032.73,2040.00,2156.61,2337.17,2537.72,349.86,357.17,22.18,0000 0000 0000 0000 000000
2014-12-15 12:29:31,0.27,4.07,0.00,19.51,24.25,27.55,4.92,27.30,1032.73,2040.00,2154.68,2335.80,2536.39,349.79,357.23,22.21,0000 0000 0000 0000 000000
2014-12-15 12:34:33,0.23,4.08,0.00,19.55,24.25,27.55,4.97,27.25,1032.73,2040.00,2152.89,2334.58,2535.10,350.23,357.35,22.24,0000 0000 0000 0000 000000
2014-12-15 12:39:34,0.26,4.09,0.00,19.60,24.25,27.57,4.97,27.42,1032.73,2040.00,2150.99,2333.37,2533.72,349.87,357.11,22.27,0000 0000 0000 0000 000000
2014-12-15 12:44:35,0.20,4.10,0.00,19.63,24.25,27.57,4.90,27.32,1032.72,2040.00,2149.17,2332.06,2532.46,349.15,356.39,22.29,0000 0000 0000 0000 000000
2014-12-15 12:49:37,0.28,4.10,0.00,19.53,24.25,27.59,4.87,27.20,1032.72,2040.00,2147.36,2330.76,2531.04,349.68,356.81,22.32,0000 0000 0000 0000 000000
2014-12-15 12:54:38,0.28,4.11,0.00,19.51,24.25,27.57,4.96,27.37,1032.71,2040.00,2145.25,2329.41,2529.60,349.77,356.92,22.35,0000 0000 0000 0000 000000
2014-12-15 12:59:39,0.24,4.12,0.00,19.60,24.25,27.56,4.95,27.32,1032.67,2040.00,2143.26,2328.02,2528.20,349.66,356.89,22.38,0000 0000 0000 0000 000000